Find STARLINK-37848

NORAD ID: 799501226 Int'l Des: 2026-161X Constellation: starlink operational

現在のビュー

3D地球を読み込み中...

About STARLINK-37848

STARLINK-37848 (NORAD 799501226) is a starlink constellation satellite launched Jul 14, 2026

STARLINK-37848について

説明を読み込み中...

次回通過

Passes for default location (London). Set your location on the main map for personalized predictions.

高度履歴

Loading altitude history...

軌道要素

1 99999C 2026161X 26195.69909721 .00513170 00000-0 504530-4 0 1955
2 99999 53.1641 325.2537 0009408 281.3421 134.4640 16.10285809 19
Epoch: Jul 14, 2026 • Age: 7 hours

現在のステータス

高度 254.9 km
遠地点 / 近地点 N/A
速度 7.76 km/s
衛星直下点 -46.19°S, 16°W
打ち上げ日 Jul 14, 2026
運用期間 N/A
タイプ internet

Most Searched